Location: Härggis
(46.9540°N, 8.4897°E)
Time: 00:29:44
(UTC+00:00)

Resurs 1-4 Rocket - Pass Details

Date: 27 May 2022
Orbit: 800 x 813 km, 98.7° (Epoch: 02 July)

Event Time Altitude Azimuth Distance (km) Brightness Sun altitude
Rises 02:36:54 0° 2° (N) 3,323 6.1 -9.0°
Reaches altitude 10° 02:39:48 10° 347° (NNW) 2,389 5.0 -8.7°
Maximum altitude 02:43:31 20° 301° (WNW) 1,789 3.8 -8.2°
Drops below altitude 10° 02:47:14 10° 256° (WSW) 2,383 4.0 -7.8°
Enters shadow 02:48:06 - 250° (WSW) 2,640 4.2 -7.6°
